FW2545 Weather Reports


Display with metric or nautical units.
time (UTC)temp
F
wind
direction
speed
MPH
gust
MPH
rain 1hr
in
rain 24hr
in
rain mn
in
humidity
%
barometer
mb
20260505083029 51 244 0.0 3.0 0.00 0.00 0.00 84 1012.9
20260505081606 51 271 2.0 5.0 0.00 0.00 0.00 84 1012.8
20260505080107 51 292 1.0 4.0 0.00 0.00 0.00 82 1012.8
20260505074530 51 251 1.0 4.0 0.00 0.00 0.00 81 1012.7
20260505071531 52 251 0.0 3.0 0.00 0.00 0.00 79 1012.5
20260505070037 52 270 0.0 3.0 0.00 0.00 0.00 77 1012.4
20260505064527 53 255 1.0 4.0 0.00 0.00 0.00 75 1012.4
20260505063029 55 247 0.0 1.0 0.00 0.00 0.00 73 1012.4
20260505061604 56 247 0.0 3.0 0.00 0.00 0.00 70 1012.3
20260505060107 57 170 0.0 3.0 0.00 0.00 0.00 68 1012.3
20260505054532 58 202 1.0 4.0 0.00 0.00 0.00 66 1012.2
20260505053031 59 192 2.0 4.0 0.00 0.00 0.00 65 1012.2
20260505051533 60 237 1.0 6.0 0.00 0.00 0.00 62 1012.0
20260505041530 66 248 3.0 5.0 0.00 0.00 0.00 55 1011.5
20260505040043 66 233 3.0 7.0 0.00 0.00 0.00 55 1011.4
20260505034528 66 244 1.0 6.0 0.00 0.00 0.00 53 1011.1
20260505033031 68 213 2.0 5.0 0.00 0.00 0.00 50 1010.9
20260505031530 69 264 4.0 11.0 0.00 0.00 0.00 47 1010.7
20260505030033 71 263 4.0 10.0 0.00 0.00 0.00 46 1010.4
20260505024605 72 269 5.0 16.0 0.00 0.00 0.00 43 1010.3
20260505023031 73 265 8.0 14.0 0.00 0.00 0.00 42 1010.2
20260505020030 76 266 9.0 19.0 0.00 0.00 0.00 38 1010.1
20260505013119 76 261 9.0 19.0 0.00 0.00 0.00 41 1010.0
20260505010033 77 307 5.0 11.0 0.00 0.00 0.00 44 1010.0
20260505004530 78 315 6.0 13.0 0.00 0.00 0.00 43 1010.1
20260505003031 79 323 6.0 15.0 0.00 0.00 0.00 41 1010.1
20260505000028 80 330 6.0 14.0 0.00 0.00 0.00 41 1010.2
20260504234531 80 330 7.0 16.0 0.00 0.00 0.00 41 1010.2
20260504231530 81 336 5.0 12.0 0.00 0.00 0.00 39 1010.4
20260504230031 82 330 6.0 15.0 0.00 0.00 0.00 38 1010.5
20260504224531 82 333 7.0 16.0 0.00 0.00 0.00 37 1010.7
20260504223029 84 324 6.0 15.0 0.00 0.00 0.00 35 1010.8
20260504221531 84 323 5.0 13.0 0.00 0.00 0.00 35 1010.9
20260504220032 85 327 5.0 12.0 0.00 0.00 0.00 33 1011.0
20260504214530 85 325 4.0 11.0 0.00 0.00 0.00 31 1011.2
20260504210031 85 317 4.0 10.0 0.00 0.00 0.00 31 1011.6
20260504204531 84 312 4.0 11.0 0.00 0.00 0.00 32 1011.7
20260504203104 84 313 4.0 11.0 0.00 0.00 0.00 33 1011.8
20260504201530 83 322 5.0 13.0 0.00 0.00 0.00 33 1011.9
20260504200031 83 315 5.0 11.0 0.00 0.00 0.00 35 1012.0
20260504194531 82 314 6.0 12.0 0.00 0.00 0.00 38 1012.1
20260504193030 81 310 6.0 14.0 0.00 0.00 0.00 39 1012.1
20260504191646 81 316 6.0 14.0 0.00 0.00 0.00 39 1012.2
20260504190031 81 321 6.0 13.0 0.00 0.00 0.00 42 1012.3
20260504184605 79 327 4.0 12.0 0.00 0.00 0.00 44 1012.4
20260504181529 74 332 3.0 8.0 0.00 0.00 0.00 50 1012.5
20260504174531 72 325 3.0 10.0 0.00 0.00 0.00 52 1012.5
20260504173029 71 325 3.0 8.0 0.00 0.00 0.00 53 1012.5
20260504171529 71 309 2.0 6.0 0.00 0.00 0.00 54 1012.4